Location: Newark
(63.8600°N, 149.4141°W)
Time: 03:48:00
(UTC+00:00)

Envisat - Visible Passes

Search period start: 19 September 2020 00:00
Search period end: 29 September 2020 00:00
Orbit: 764 x 766 km, 98.1° (Epoch: 18 September)

Date Brightness Start Highest point End Pass type
(mag) Time Alt. Az. Time Alt. Az. Time Alt. Az.
19 Sep 6.7 05:16:34 10° W 05:18:22 12° WNW 05:20:11 10° NW visible
21 Sep 6.4 14:17:03 10° NE 14:19:28 13° ENE 14:21:51 10° ESE visible
22 Sep 6.5 05:04:16 10° WSW 05:06:47 14° WNW 05:09:20 10° NW visible
23 Sep 6.1 14:41:48 10° NE 14:45:22 19° E 14:48:53 10° SE visible
24 Sep 6.6 14:06:16 10° NE 14:07:52 11° ENE 14:09:28 10° E visible
25 Sep 6.3 04:52:10 10° WSW 04:55:14 16° W 04:58:18 10° NW visible
26 Sep 6.2 14:30:40 10° NE 14:33:48 16° E 14:36:56 10° ESE visible
27 Sep 6.8 05:19:44 10° W 05:21:10 11° WNW 05:22:36 10° WNW visible
28 Sep 6.2 04:40:12 10° SW 04:43:40 18° W 04:47:10 10° NW visible
28 Sep 5.9 14:55:40 10° NE 14:59:40 22° E 15:03:37 10° SE visible
